DMSP 5D-2 F11 DEB

Satellite information

Favourite Embed

Satellite Type and Status

DEBRISIN ORBIT

Key statistics

Satellite DMSP 5D-2 F11 DEB at a glance.

Uptime

12330

Days in orbit

Revolutions

≈ 14.3

Per day

Orbit

SSO

Sun Synchronous Orbit

Inclination

98.6

Latest

Satellite identification and parameters

Extended collection of information and parameters for DMSP 5D-2 F11 DEB.

Object identification

Identified? True

Debris? True

Object name: DMSP 5D-2 F11 DEB

International designator: 1991-082V

Object number (NORAD): 28308

Object ID (CCSDS): 28308

Country: UNITED STATES OF AMERICA (US)

Current information (Y/N): Y

RCS size: SMALL

Orbital parameters

Period: 100.752 minutes

Inclination: 98.5922 deg

SMA: 7172.366 km

Apoapsis: 804.845 km

Periapsis: 783.616 km

RAAN: 272.1753 deg

Eccentricy: 0.00147991

Argument of periapsis: 152.2705 deg

Mean anomaly: 27.754 deg

Mean motion: 14.29252959 rev/day

Mean motion (dot): 0.00001725 rev/day2

B* drag term: 0.00069473636 1/REarth

Two-line elements (TLE)

Creation date: Aug. 31, 2025, 2:26 a.m.

Reference frame: TEME

Reference center: EARTH

Epoch: Aug. 30, 2025, 8:23 p.m. UTC

TLE line 0: 0 DMSP 5D-2 F11 DEB

TLE line 1: 1 28308U 91082V 25242.84936767 .00001725 00000-0 69474-3 0 9994

TLE line 2: 2 28308 98.5922 272.1753 0014799 152.2705 27.7540 14.29252959107693

Live tracking on map

Real-time ground track for satellite DMSP 5D-2 F11 DEB.

In-orbit conjunctions

A list of the most updated potential collisions computed for object DMSP 5D-2 F11 DEB.

Target Orbit TCA Probability of collision Miss distance Type
SL-8 R/B LEO 2025-02-19 22:46:34 0.0001142257 138.0 (m) ROCKET BODY
CZ-6A DEB LEO 2025-02-02 02:51:04 0.0001136206 764.0 (m) DEBRIS
ST5-A HEO 2025-01-16 05:52:04 0.000603289 221.0 (m) PAYLOAD
COSMOS 2150 LEO 2024-11-04 08:15:21 0.0001766432 435.0 (m) PAYLOAD

Associated space launch

Military meteorological satellite

DMSP 5D-2 F11 DEB was lifted into orbit during the mission ‘Atlas E | DMSP-5D2 F11’, on board a Atlas E space rocket.

The launch took place on Nov. 28, 1991, 1:23 p.m. from Space Launch Complex 3W.

For more information about the launch, click the button.

Launch to space Atlas E | DMSP-5D2 F11
Atlas E | DMSP-5D2 F11

Agency: N/A

Status: Launch Successful

Launch date: Nov. 28, 1991, 1:23 p.m. UTC

Rocket: Atlas E

Launch pad: Space Launch Complex 3W

Location: Vandenberg SFB, CA, USA

...

Latest news about this satellite

There are no fresh news available about this satellite. Check back as we update our databases every day.


Newsletter sign-up

Weekly statistics, charts and insights to help you stay on top of the space industry.